Theta_e
307 307 307 307 307 308 307 309 310 310 310 311 310 311 311 310 312 313 314 311 312 314 316 318 320 321 322 319 313 314 318 322 324 326 324 314 316 314 315 331 334 335 333 334 337
306 306 306 305 305 303 305 308 309 309 309 310 311 309 310 309 311 314 311 310 312 317 315 317 320 321 323 323 321 315 318 322 322 321 316 314 314 312 320 327 336 338 335 337 338
304 305 304 304 305 304 304 303 306 308 308 310 311 308 308 309 313 313 316 313 316 315 314 318 319 320 324 323 324 321 319 320 319 314 314 314 314 312 319 319 322 339 338 335 335
303 303 304 304 304 304 304 304 303 306 308 308 307 307 308 310 308 316 313 315 316 316 315 316 317 320 321 323 323 325 321 321 320 314 314 314 313 314 314 315 312 335 336 335 334
302 302 302 302 303 303 303 304 304 304 307 308 307 306 308 310 310 311 312 312 315 316 315 314 318 318 320 319 319 323 323 321 320 320 314 312 314 314 314 312 316 326 335 335 333
302 302 301 301 301 301 302 303 304 304 306 307 307 307 309 310 307 310 312 311 316 318 315 313 315 314 318 320 321 321 320 321 320 319 318 314 314 314 314 311 318 336 336 334 334
302 302 301 301 301 301 302 303 304 303 305 305 307 307 308 307 308 311 312 312 312 316 316 315 313 313 312 314 319 322 323 322 319 316 319 315 317 313 312 312 313 314 330 334 333
300 301 301 301 301 301 301 302 302 302 303 305 306 307 307 306 309 310 311 311 311 312 313 315 314 308 309 310 311 316 319 322 318 313 313 319 324 317 311 311 312 311 310 324 332
302 299 300 302 301 301 301 301 302 301 302 304 305 307 307 306 307 307 310 310 312 312 314 314 312 308 308 312 314 313 319 313 314 317 317 319 322 320 318 312 312 311 309 309 309
300 300 302 302 302 301 300 301 301 301 302 304 303 305 305 307 308 309 310 310 311 313 314 314 313 312 307 312 316 314 311 313 314 312 317 316 317 316 312 311 311 309 308 308 308
303 301 300 301 300 301 299 301 300 301 304 304 304 307 307 306 308 307 308 309 309 310 314 314 314 313 310 308 306 310 313 312 310 307 307 312 315 313 313 309 308 307 306 306 306
301 300 300 301 301 300 297 300 300 299 305 304 304 305 306 306 308 308 307 309 310 311 310 315 313 312 312 309 308 307 308 307 308 308 307 306 309 310 308 308 308 307 305 305 306
300 300 300 300 301 299 298 300 301 301 301 302 304 304 306 306 307 307 307 309 310 310 311 313 312 311 312 312 311 309 308 306 308 306 305 305 304 305 305 305 306 307 306 306 305
299 300 300 299 299 298 298 300 301 300 290 300 305 304 305 306 307 307 307 308 309 310 310 311 309 312 312 312 310 311 307 307 308 305 303 302 302 302 303 304 304 305 305 306 304
300 300 300 300 299 298 300 300 299 296 291 299 304 304 305 306 306 308 308 308 309 309 308 309 309 310 312 312 309 311 308 308 307 306 305 304 302 301 302 302 302 302 303 305 304
300 300 300 301 299 299 299 300 296 289 287 301 304 305 306 306 306 308 308 307 307 308 306 306 306 307 308 310 309 309 307 306 306 304 304 304 303 302 302 303 303 305 305 304 302
300 300 301 300 298 299 298 294 289 288 290 296 304 304 305 306 306 308 309 309 307 307 308 308 308 309 308 311 309 309 306 305 306 302 304 302 302 303 301 302 302 306 304 301 299
300 300 300 299 299 298 297 289 286 281 283 298 301 303 306 305 305 307 308 308 307 305 307 306 306 308 309 309 311 309 306 307 307 307 307 303 304 302 306 306 304 303 301 299 297
300 300 300 299 299 298 288 285 286 286 297 301 301 299 302 305 304 306 305 305 306 305 305 307 307 308 309 310 309 311 308 305 307 297 304 305 304 305 306 307 304 302 300 298 296
300 299 299 299 298 296 287 291 285 295 300 299 296 300 294 301 303 305 306 304 306 305 305 307 308 306 308 309 308 310 308 308 305 303 304 307 306 303 307 307 306 303 299 297 294
298 298 298 298 296 289 286 284 290 296 299 298 297 296 301 300 303 303 305 302 301 304 306 305 302 308 309 309 309 311 309 309 307 306 306 306 304 305 308 306 307 303 299 296 293
295 298 296 296 289 287 291 287 297 295 298 299 300 300 298 304 297 303 303 301 299 300 306 305 305 306 309 308 307 308 310 308 307 303 304 308 306 305 305 303 303 300 296 293 292
295 296 296 296 288 290 291 290 296 296 298 299 302 300 302 303 303 301 301 299 299 303 305 305 300 298 303 305 306 308 309 311 310 311 308 305 305 304 304 303 300 297 295 292 291
294 295 294 294 291 291 294 291 293 296 298 298 300 300 302 302 299 300 302 300 300 302 304 303 300 294 298 300 303 307 307 308 308 310 310 310 308 307 305 305 301 297 294 292 290
295 295 294 293 292 292 294 297 297 297 298 297 300 299 300 301 300 297 301 301 300 301 302 296 296 300 298 299 302 301 305 306 306 300 305 303 304 304 302 304 302 298 294 292 291
294 295 295 290 293 296 295 294 298 296 297 298 298 297 297 292 298 300 299 298 299 298 301 298 291 292 291 299 302 300 301 300 299 298 301 299 301 300 300 302 300 297 295 293 291
293 294 294 296 297 293 292 296 297 297 296 296 298 297 296 295 294 295 295 296 297 297 297 294 288 286 289 292 290 291 295 300 302 302 298 297 299 303 306 302 300 297 295 294 292
Wind_Speed
17 15 14 15 13 16 15 13 19 17 15 13 12 10 8 9 8 8 8 11 12 13 6 6 9 4 2 4 4 1 1 4 4 6 3 3 2 5 5 4 4 6 5 11 30
15 13 14 16 15 15 17 16 12 15 17 14 12 9 7 7 8 12 14 15 12 11 10 13 8 12 2 3 5 3 4 6 1 3 4 4 1 5 5 5 6 5 9 27 31
14 13 13 14 15 15 16 19 16 15 17 13 12 11 7 5 2 6 5 18 15 14 7 8 13 7 5 4 5 3 5 4 2 2 1 2 1 4 2 5 1 6 12 11 21
14 12 12 14 14 14 14 13 20 17 9 11 12 12 7 4 5 2 3 6 21 14 12 11 5 5 5 6 4 5 6 3 3 5 2 2 1 2 3 4 3 7 12 10 11
12 12 13 14 14 14 14 13 14 18 9 7 10 11 5 3 5 1 4 4 9 18 18 6 6 4 10 6 6 11 6 6 4 7 7 2 2 2 2 5 5 9 8 9 8
11 13 12 13 15 16 15 14 13 10 10 7 7 9 4 5 7 8 8 2 4 16 16 14 7 5 6 5 10 5 10 13 10 5 4 4 3 4 3 3 8 8 8 8 9
12 11 12 13 14 15 15 18 13 10 8 8 6 9 4 8 4 6 6 4 7 9 9 16 8 6 3 5 6 7 4 6 7 5 5 6 4 7 6 2 2 5 6 7 9
13 12 14 13 13 13 13 14 13 12 7 8 8 6 4 16 10 4 4 4 5 2 4 19 13 4 3 4 3 8 2 3 8 6 4 5 5 6 5 4 7 6 5 7 9
13 13 13 12 14 11 13 14 9 10 8 8 3 5 4 2 7 16 8 2 4 4 4 9 9 4 3 7 3 3 6 6 5 4 7 6 3 8 5 6 6 6 8 7 7
13 14 13 12 12 11 13 10 8 8 7 7 5 1 4 4 9 12 14 5 2 3 3 3 2 4 3 9 12 7 6 8 5 7 13 15 6 3 3 7 9 7 6 7 7
14 13 11 11 10 8 11 4 3 2 6 2 5 5 2 2 10 9 14 5 3 2 4 3 3 6 8 6 2 6 5 6 3 3 4 10 9 8 5 4 5 4 6 7 8
12 13 12 9 6 7 7 0 1 5 2 6 4 7 10 3 4 5 15 6 4 9 3 3 5 6 6 6 5 4 7 6 2 4 5 2 4 4 6 5 7 8 8 8 5
9 13 10 8 4 7 2 4 3 4 1 2 6 4 6 0 3 6 10 5 5 5 4 4 5 10 8 6 6 5 5 4 3 2 2 3 4 4 6 4 4 5 7 7 8
8 8 8 4 3 3 3 3 5 5 4 2 4 4 6 2 1 6 15 6 4 7 5 3 4 9 4 4 5 4 6 5 5 2 3 2 4 4 6 8 6 9 8 6 6
9 8 7 6 3 1 1 4 3 3 3 5 1 5 5 4 3 5 14 2 6 6 5 5 3 3 2 3 4 4 5 4 3 3 2 1 3 7 2 6 8 7 6 6 6
9 9 8 8 2 2 2 2 3 6 4 4 5 1 5 1 1 4 5 3 2 4 4 6 2 6 8 4 5 6 5 6 4 3 2 6 5 5 4 6 1 2 6 6 6
9 11 12 8 1 3 2 4 5 5 3 4 1 1 5 4 0 4 6 5 4 5 3 1 0 1 4 6 2 5 5 2 2 2 5 3 3 8 6 5 3 6 6 6 6
9 13 11 4 2 4 2 5 5 3 5 3 2 0 5 4 3 2 6 4 1 3 4 5 1 6 3 4 6 5 6 5 6 3 3 3 5 5 3 6 10 11 8 7 7
18 15 10 6 5 4 5 4 6 6 3 2 3 3 2 2 3 3 2 6 5 4 4 3 2 1 3 3 9 4 3 4 5 2 3 3 4 1 3 6 8 8 6 6 6
16 7 5 7 6 5 4 3 3 3 4 4 3 3 3 3 2 4 7 2 4 5 2 1 2 3 2 2 1 5 6 2 2 3 2 3 2 3 1 3 4 5 6 5 5
12 3 7 7 5 5 3 6 4 2 2 2 2 2 4 4 4 3 4 3 6 2 6 4 2 2 1 3 2 3 3 3 3 3 3 2 2 3 5 6 8 6 5 5 5
5 3 4 2 3 1 2 4 2 3 1 2 2 3 5 5 4 2 3 3 4 2 7 3 3 2 2 3 4 0 1 4 3 4 2 2 3 4 5 7 7 6 5 5 5
3 3 4 3 3 1 2 3 2 2 3 1 2 2 1 2 5 4 4 3 3 2 3 5 1 2 3 3 2 3 2 2 2 1 4 5 3 3 5 6 4 6 5 5 6
3 2 2 3 2 4 2 3 3 1 3 2 3 1 2 4 4 5 3 2 2 4 7 2 3 4 5 4 2 3 5 1 1 1 2 3 3 4 2 3 3 5 6 6 6
2 1 3 2 2 1 1 0 2 2 2 3 3 3 3 3 4 4 3 2 5 5 3 4 4 1 0 1 2 5 5 5 5 4 4 5 1 7 9 6 9 10 7 7 8
3 3 1 2 3 3 2 2 1 1 4 2 4 5 5 4 2 4 5 2 2 4 3 4 1 2 5 7 3 1 3 4 3 2 5 2 7 10 8 5 5 8 9 8 8
2 2 3 2 2 2 2 1 1 1 4 5 4 7 11 6 4 5 7 6 5 4 2 3 4 3 3 5 5 5 3 4 4 4 5 5 8 2 4 6 9 10 10 10 10
Wind_Direction
313 310 318 316 307 316 296 291 252 245 247 251 252 256 258 251 265 233 218 222 208 216 197 115 199 249 350 32 309 333 295 234 195 152 204 2 326 334 281 74 53 344 156 157 146
326 313 313 317 319 312 305 325 304 266 241 240 242 245 253 254 261 239 239 226 213 193 165 178 166 173 98 35 350 196 191 216 244 169 188 125 19 302 30 41 25 30 70 131 142
339 325 322 322 313 316 311 287 322 314 249 226 233 230 236 235 266 241 231 216 201 191 166 179 150 127 146 134 211 323 202 235 109 97 282 160 350 327 127 36 15 170 141 144 142
340 332 326 324 323 322 319 290 276 305 262 232 236 220 220 200 222 220 153 173 198 200 165 144 137 146 144 163 191 260 240 355 4 358 331 239 95 62 43 177 268 179 161 154 154
336 332 328 327 325 320 311 299 272 289 281 245 228 218 202 204 241 280 158 140 192 199 197 178 166 188 175 176 198 258 272 310 343 318 291 195 176 229 253 285 346 165 159 152 150
328 325 325 324 325 320 313 306 297 275 291 240 244 205 193 205 242 244 201 181 166 174 189 191 194 214 145 165 176 209 249 274 302 273 259 210 219 159 280 134 65 123 163 176 167
315 316 312 313 319 317 320 318 302 296 276 245 259 197 187 221 174 170 195 184 141 175 179 195 210 220 154 164 182 197 176 300 303 240 236 165 211 211 226 254 322 162 195 196 194
321 309 307 302 309 315 311 316 301 283 283 255 238 209 233 228 196 137 164 189 196 194 122 192 218 219 164 102 208 171 177 180 264 225 248 162 241 230 198 180 250 257 220 211 215
304 310 316 303 305 306 315 311 298 289 286 248 247 216 236 279 199 223 211 164 171 156 116 137 136 182 106 167 143 201 207 200 159 211 282 202 234 242 211 152 238 241 252 224 228
299 303 310 304 306 301 318 306 293 273 257 158 232 101 269 199 154 179 200 218 104 127 73 129 123 149 116 172 196 184 194 198 220 178 188 263 239 215 208 172 220 248 245 243 235
280 288 301 311 310 300 330 338 8 13 246 186 172 262 40 179 143 180 201 160 90 85 158 192 140 190 181 186 112 159 173 184 228 213 198 224 210 228 194 224 183 218 225 241 232
279 275 289 309 298 300 316 332 289 308 274 202 191 312 297 278 123 165 177 151 147 185 139 147 199 211 188 206 184 157 159 196 81 299 194 200 232 235 244 208 204 209 230 225 247
283 270 284 297 262 288 293 266 281 265 47 265 219 211 285 341 158 189 152 150 139 156 195 169 178 189 182 189 195 197 174 176 142 237 5 90 306 242 254 225 220 245 219 219 215
272 269 265 271 261 271 289 4 283 312 65 247 184 210 218 184 196 177 164 147 160 174 143 236 287 169 156 202 169 162 191 142 140 80 191 62 258 267 246 248 220 228 210 217 98
256 246 235 206 310 64 5 317 324 36 73 304 156 336 190 167 130 197 165 125 162 162 140 219 215 177 190 193 155 164 101 142 140 118 55 343 87 278 291 262 247 238 166 117 97
239 224 200 193 279 99 332 311 14 42 269 338 325 148 149 16 303 121 149 56 138 123 122 212 256 152 190 179 156 135 79 47 60 87 328 211 141 270 229 225 203 63 99 90 83
224 206 193 177 235 181 316 34 45 113 305 280 282 349 176 167 179 146 156 172 159 123 157 127 115 228 163 124 112 113 100 34 14 2 219 140 143 252 248 273 249 145 94 71 64
194 165 171 160 162 191 64 50 76 245 231 296 200 235 188 138 234 127 123 165 252 93 126 145 328 174 191 180 163 166 164 156 186 191 220 106 214 251 344 41 95 95 89 75 56
152 143 133 132 159 186 70 60 202 206 259 314 65 71 261 166 173 104 117 169 204 177 117 133 233 102 163 148 143 206 163 159 104 41 69 231 293 315 79 69 75 94 89 77 70
128 120 81 135 153 82 72 249 213 235 335 30 162 156 188 196 82 140 156 244 183 177 117 153 103 28 232 89 68 157 157 81 4 122 216 274 266 238 269 213 139 122 110 105 91
107 91 135 138 124 50 137 231 263 280 349 73 250 168 207 181 159 169 161 42 15 47 91 131 78 306 87 20 154 128 162 72 137 148 167 148 262 342 319 257 176 147 134 115 102
91 85 128 120 59 132 188 202 301 309 335 250 253 217 185 183 125 116 124 27 350 293 136 171 113 98 42 105 48 63 117 155 142 259 248 96 282 354 35 39 87 97 107 107 107
73 82 50 11 119 233 291 300 298 317 277 282 239 306 43 286 119 98 81 280 325 88 135 168 355 81 0 353 10 75 349 41 111 96 201 146 245 46 48 65 116 143 147 140 130
94 109 21 44 186 155 200 280 283 239 276 284 274 108 94 30 8 123 112 65 11 70 60 121 101 153 174 168 132 154 173 177 313 209 172 200 163 270 329 153 196 183 171 163 154
73 127 196 172 290 188 255 219 335 0 321 319 358 28 178 85 49 86 96 88 37 20 67 87 118 96 214 214 112 163 165 177 189 194 160 216 178 286 274 243 196 192 178 170 164
139 144 51 134 148 160 13 315 346 34 11 350 88 28 66 120 190 156 126 141 143 26 65 19 67 80 7 351 20 257 235 204 216 241 264 239 269 245 263 204 170 175 182 188 184
105 89 101 48 186 76 223 146 157 188 12 49 86 81 60 14 46 59 71 75 112 103 87 73 114 67 291 350 3 349 262 216 238 198 159 180 238 270 264 220 200 187 188 195 186